FW9036 Weather Reports


time (UTC)temp
C
wind
direction
speed
KPH
gust
KPH
rain 1hr
cm
rain 24hr
cm
rain mn
cm
humidity
%
barometer
mb
20260510171449 25 82 4.8 6.4 0.00 0.00 0.00 84 1018.0
20260510170945 26 78 0.0 4.8 0.00 0.00 0.00 85 1018.3
20260510170442 25 75 4.8 6.4 0.00 0.00 0.00 85 1018.2
20260510165938 25 19 3.2 4.8 0.00 0.00 0.00 85 1018.3
20260510165434 25 75 3.2 4.8 0.00 0.00 0.00 85 1018.4
20260510164931 25 77 3.2 6.4 0.00 0.00 0.00 85 1018.5
20260510164428 25 90 4.8 6.4 0.00 0.00 0.00 86 1018.5
20260510163929 25 86 4.8 6.4 0.00 0.00 0.00 86 1018.3
20260510163425 25 96 3.2 8.0 0.00 0.00 0.00 88 1018.6
20260510162919 25 90 1.6 1.6 0.00 0.00 0.00 89 1018.6
20260510162417 24 35 0.0 3.2 0.00 0.00 0.00 89 1018.7
20260510161913 24 82 0.0 0.0 0.00 0.00 0.00 90 1018.9
20260510161408 23 79 3.2 4.8 0.00 0.00 0.00 90 1018.6
20260510160906 23 90 3.2 4.8 0.00 0.00 0.00 91 1018.7
20260510160403 23 90 0.0 3.2 0.00 0.00 0.00 92 1018.6
20260510155902 23 103 0.0 1.6 0.00 0.00 0.00 92 1018.7
20260510155359 23 77 1.6 3.2 0.00 0.00 0.00 92 1018.6
20260510154855 23 85 3.2 3.2 0.00 0.00 0.00 93 1018.6
20260510154352 23 83 0.0 3.2 0.00 0.00 0.00 93 1018.6
20260510153845 23 63 3.2 3.2 0.00 0.00 0.00 93 1018.8
20260510153341 23 105 1.6 3.2 0.00 0.00 0.00 94 1018.8
20260510152838 22 83 1.6 3.2 0.00 0.00 0.00 94 1018.8
20260510152336 22 83 1.6 3.2 0.00 0.00 0.00 94 1018.8
20260510151832 23 114 1.6 3.2 0.00 0.00 0.00 94 1018.4
20260510151330 22 82 1.6 3.2 0.00 0.00 0.00 95 1018.9
20260510150825 22 90 0.0 1.6 0.00 0.00 0.00 95 1018.7
20260510150321 22 90 0.0 4.8 0.00 0.00 0.00 95 1018.6
20260510145818 23 29 1.6 3.2 0.00 0.00 0.00 95 1018.7
20260510145314 23 90 0.0 1.6 0.00 0.00 0.00 95 1018.7
20260510144811 22 74 0.0 0.0 0.00 0.00 0.00 95 1018.3
20260510144308 22 172 0.0 1.6 0.00 0.00 0.00 95 1018.3
20260510143807 23 99 0.0 1.6 0.00 0.00 0.00 95 1018.4
20260510143303 22 81 3.2 3.2 0.00 0.00 0.00 95 1018.4
20260510142800 22 74 1.6 3.2 0.00 0.00 0.00 95 1018.3
20260510142257 22 57 3.2 3.2 0.00 0.00 0.00 95 1018.4
20260510141754 22 120 0.0 3.2 0.00 0.00 0.00 95 1018.5
20260510141252 22 102 3.2 3.2 0.00 0.00 0.00 96 1018.4
20260510140749 22 74 0.0 3.2 0.00 0.00 0.00 95 1018.4
20260510140244 22 106 0.0 3.2 0.00 0.00 0.00 95 1018.6
20260510135738 22 75 0.0 0.0 0.00 0.00 0.00 96 1018.4
20260510135233 22 90 1.6 1.6 0.00 0.00 0.00 95 1018.2
20260510134732 22 90 1.6 3.2 0.00 0.00 0.00 96 1018.1
20260510134229 22 82 0.0 0.0 0.00 0.00 0.00 96 1018.2
20260510133724 22 82 0.0 0.0 0.00 0.00 0.00 96 1018.2
20260510133220 22 82 0.0 0.0 0.00 0.00 0.00 96 1018.5
20260510132716 22 74 3.2 3.2 0.00 0.00 0.00 96 1018.2
20260510132214 22 0 0.0 1.6 0.00 0.00 0.00 96 1018.0
20260510131711 22 74 0.0 1.6 0.00 0.00 0.00 96 1018.1
20260510131209 22 291 1.6 4.8 0.00 0.00 0.00 96 1017.8
20260510130705 22 90 0.0 1.6 0.00 0.00 0.00 96 1017.9
20260510130203 22 75 0.0 1.6 0.00 0.00 0.00 96 1018.0
20260510125658 21 66 1.6 3.2 0.00 0.00 0.00 96 1018.1
20260510125155 22 346 0.0 1.6 0.00 0.00 0.00 96 1018.0
20260510124652 22 53 0.0 3.2 0.00 0.00 0.00 96 1017.7
20260510124149 22 353 0.0 4.8 0.00 0.00 0.00 96 1017.8
20260510123644 21 35 1.6 3.2 0.00 0.00 0.00 96 1017.9
20260510123140 21 0 0.0 1.6 0.00 0.00 0.00 96 1017.6
20260510122637 21 7 0.0 3.2 0.00 0.00 0.00 96 1017.5
20260510122133 21 90 0.0 3.2 0.00 0.00 0.00 96 1017.5
20260510121629 22 36 0.0 3.2 0.00 0.00 0.00 96 1017.5
20260510121127 22 325 0.0 3.2 0.00 0.00 0.00 96 1017.5
20260510120625 22 54 1.6 3.2 0.00 0.00 0.00 96 1017.4
20260510120120 22 82 1.6 3.2 0.00 0.00 0.00 95 1017.2
20260510115617 22 66 0.0 4.8 0.00 0.00 0.00 96 1017.2
20260510115114 22 7 0.0 0.0 0.00 0.00 0.00 95 1017.2
20260510114609 22 81 0.0 1.6 0.00 0.00 0.00 96 1017.0
20260510114106 22 90 0.0 3.2 0.00 0.00 0.00 96 1017.0
20260510113601 22 345 0.0 1.6 0.00 0.00 0.00 95 1017.1
20260510113059 22 90 1.6 3.2 0.00 0.00 0.00 95 1016.9
20260510112555 22 99 0.0 0.0 0.00 0.00 0.00 95 1017.1
20260510112052 22 90 0.0 1.6 0.00 0.00 0.00 95 1016.9
20260510111548 22 90 0.0 0.0 0.00 0.00 0.00 95 1016.7
20260510111044 22 81 0.0 3.2 0.00 0.00 0.00 95 1016.7
20260510110541 22 98 0.0 3.2 0.00 0.00 0.00 95 1016.3
20260510110037 22 90 0.0 1.6 0.00 0.00 0.00 95 1016.4
20260510105532 21 106 1.6 1.6 0.00 0.00 0.00 95 1016.1
20260510105027 21 114 1.6 3.2 0.00 0.00 0.00 95 1016.5
20260510104524 22 98 0.0 3.2 0.00 0.00 0.00 95 1016.4
20260510104021 22 111 1.6 3.2 0.00 0.00 0.00 95 1016.3
20260510103518 21 106 0.0 0.0 0.00 0.00 0.00 95 1016.4
20260510103014 22 81 0.0 8.0 0.00 0.00 0.00 95 1016.0
20260510102510 21 90 0.0 0.0 0.00 0.00 0.00 95 1016.3
20260510102007 21 106 1.6 1.6 0.00 0.00 0.00 95 1016.1
20260510101504 21 114 0.0 1.6 0.00 0.00 0.00 95 1016.2
20260510101003 21 114 0.0 3.2 0.00 0.00 0.00 95 1015.7
20260510100458 21 90 0.0 1.6 0.00 0.00 0.00 95 1016.0
20260510095955 21 106 0.0 1.6 0.00 0.00 0.00 95 1015.8
20260510095451 21 99 0.0 0.0 0.00 0.00 0.00 95 1015.9
20260510094950 21 99 0.0 0.0 0.00 0.00 0.00 95 1016.0
20260510094445 21 90 0.0 1.6 0.00 0.00 0.00 95 1015.8
20260510093941 21 81 0.0 1.6 0.00 0.00 0.00 95 1015.7
20260510093436 21 120 0.0 0.0 0.00 0.00 0.00 95 1015.4
20260510092933 21 103 0.0 3.2 0.00 0.00 0.00 95 1015.6
20260510092431 21 120 1.6 3.2 0.00 0.00 0.00 95 1015.8
20260510091930 21 99 0.0 3.2 0.00 0.00 0.00 95 1015.5
20260510091428 21 126 1.6 1.6 0.00 0.00 0.00 95 1015.5
20260510090924 21 140 0.0 3.2 0.00 0.00 0.00 95 1015.5
20260510090421 21 106 0.0 1.6 0.00 0.00 0.00 95 1015.4
20260510085917 21 99 0.0 0.0 0.00 0.00 0.00 95 1015.4
20260510085412 21 106 0.0 0.0 0.00 0.00 0.00 95 1015.2
20260510084907 21 106 0.0 1.6 0.00 0.00 0.00 95 1015.0
20260510084405 21 102 3.2 3.2 0.00 0.00 0.00 95 1014.9
20260510083901 21 106 1.6 1.6 0.00 0.00 0.00 95 1015.0
20260510083358 21 106 0.0 1.6 0.00 0.00 0.00 95 1015.3
20260510082853 21 114 0.0 1.6 0.00 0.00 0.00 95 1014.9
20260510082351 21 117 1.6 3.2 0.00 0.00 0.00 95 1014.8
20260510081850 22 97 0.0 3.2 0.00 0.00 0.00 95 1014.8
20260510081346 21 99 0.0 3.2 0.00 0.00 0.00 95 1014.8
20260510080843 22 106 1.6 3.2 0.00 0.00 0.00 95 1015.0
20260510080336 22 105 1.6 3.2 0.00 0.00 0.00 95 1015.2
20260510075834 22 81 0.0 1.6 0.00 0.00 0.00 95 1015.2
20260510075332 21 90 0.0 1.6 0.00 0.00 0.00 95 1015.2
20260510074828 21 90 0.0 0.0 0.00 0.00 0.00 95 1015.2
20260510074325 21 90 0.0 0.0 0.00 0.00 0.00 95 1015.0
20260510073821 21 160 0.0 1.6 0.00 0.00 0.00 95 1014.8
20260510073317 21 120 0.0 3.2 0.00 0.00 0.00 95 1014.9
20260510072814 21 107 3.2 3.2 0.00 0.00 0.00 95 1014.9
20260510072310 21 103 1.6 3.2 0.00 0.00 0.00 95 1014.8
20260510071807 21 106 0.0 1.6 0.00 0.00 0.00 95 1014.9
20260510071303 21 90 0.0 0.0 0.00 0.00 0.00 95 1014.8
20260510070757 21 106 0.0 1.6 0.00 0.00 0.00 95 1015.0
20260510070253 21 90 0.0 0.0 0.00 0.00 0.00 95 1015.0
20260510065753 21 90 0.0 3.2 0.00 0.00 0.00 95 1014.6
20260510065250 21 90 0.0 1.6 0.00 0.00 0.00 95 1014.9
20260510064746 22 74 0.0 1.6 0.00 0.00 0.00 95 1015.0
20260510064244 21 105 0.0 0.0 0.00 0.00 0.00 95 1015.0
20260510063740 21 106 0.0 0.0 0.00 0.00 0.00 95 1014.9
20260510063236 21 106 0.0 1.6 0.00 0.00 0.00 95 1015.0
20260510062733 21 102 3.2 3.2 0.00 0.00 0.00 95 1015.1
20260510062229 21 114 0.0 1.6 0.00 0.00 0.00 95 1015.1
20260510061725 21 114 3.2 4.8 0.00 0.00 0.00 95 1014.9
20260510061222 21 90 3.2 3.2 0.00 0.00 0.00 95 1015.1
20260510060718 21 103 1.6 3.2 0.00 0.00 0.00 95 1015.2
20260510060215 21 114 0.0 1.6 0.00 0.00 0.00 95 1015.4
20260510055712 21 90 0.0 0.0 0.00 0.00 0.00 95 1015.6
20260510055210 21 90 0.0 1.6 0.00 0.00 0.00 95 1015.7
20260510054705 21 105 0.0 0.0 0.00 0.00 0.00 95 1015.7
20260510054200 21 120 0.0 1.6 0.00 0.00 0.00 95 1015.6
20260510053700 21 105 1.6 3.2 0.00 0.00 0.00 95 1015.6
20260510053157 21 120 3.2 3.2 0.00 0.00 0.00 95 1015.8
20260510052652 21 105 4.8 4.8 0.00 0.00 0.00 95 1015.9
20260510052149 21 90 0.0 3.2 0.00 0.00 0.00 95 1015.7
20260510051645 21 98 0.0 3.2 0.00 0.00 0.00 95 1016.0
20260510051141 21 74 1.6 3.2 0.00 0.00 0.00 95 1016.1
20260510050639 21 105 0.0 0.0 0.00 0.00 0.00 94 1016.2
20260510050136 21 151 0.0 0.0 0.00 0.00 0.00 94 1016.2
20260510045632 21 174 0.0 0.0 0.00 0.00 0.00 94 1016.4
20260510045129 21 106 0.0 0.0 0.00 0.00 0.00 94 1016.1
20260510044625 21 145 0.0 3.2 0.00 0.00 0.00 94 1016.4
20260510044123 21 111 0.0 1.6 0.00 0.00 0.00 94 1016.2
20260510043618 21 114 0.0 1.6 0.00 0.00 0.00 94 1016.4
20260510043115 21 151 1.6 1.6 0.00 0.00 0.00 95 1016.2
20260510042613 21 103 0.0 3.2 0.00 0.00 0.00 94 1016.3
20260510042108 21 99 0.0 0.0 0.00 0.00 0.00 94 1016.5
20260510041606 21 99 0.0 0.0 0.00 0.00 0.00 94 1016.3
20260510041103 21 99 0.0 0.0 0.00 0.00 0.00 94 1016.3
20260510040600 21 99 0.0 0.0 0.00 0.00 0.00 94 1016.4
20260510040056 21 99 0.0 0.0 0.00 0.89 0.89 94 1016.1
20260510035552 21 99 0.0 0.0 0.00 0.89 0.89 94 1016.6
20260510035052 21 99 0.0 0.0 0.00 0.89 0.89 94 1016.3
20260510034550 21 99 0.0 0.0 0.00 0.89 0.89 94 1016.6
20260510034047 21 114 0.0 0.0 0.00 0.89 0.89 94 1016.5
20260510033543 22 157 0.0 0.0 0.00 0.89 0.89 94 1016.3
20260510033041 21 172 0.0 0.0 0.00 0.89 0.89 94 1016.3
20260510032537 21 172 0.0 0.0 0.00 0.89 0.89 94 1016.3
20260510032033 21 172 0.0 0.0 0.00 0.89 0.89 94 1016.3
20260510031528 21 172 0.0 0.0 0.00 0.89 0.89 94 1016.7
20260510031024 21 172 0.0 0.0 0.00 0.89 0.89 94 1016.6
20260510030520 21 172 0.0 0.0 0.00 0.89 0.89 94 1016.3
20260510030017 21 172 0.0 0.0 0.00 0.89 0.89 94 1016.2
20260510025514 21 172 0.0 0.0 0.00 0.89 0.89 94 1016.4
20260510025012 21 172 0.0 0.0 0.00 0.89 0.89 94 1016.4
20260510024508 21 180 0.0 0.0 0.00 0.89 0.89 94 1016.2
20260510024004 22 90 0.0 3.2 0.00 0.89 0.89 94 1015.7
20260510023500 21 90 0.0 0.0 0.00 0.89 0.89 94 1015.8
20260510022957 21 90 0.0 0.0 0.05 0.89 0.89 94 1015.8
20260510022457 21 90 0.0 0.0 0.05 0.89 0.89 94 1015.7
20260510021956 21 90 0.0 0.0 0.00 0.89 0.89 94 1015.5
20260510021454 22 90 0.0 0.0 0.00 0.89 0.89 94 1015.5
20260510020951 21 90 0.0 0.0 0.00 0.89 0.89 94 1015.6
20260510020450 22 90 0.0 0.0 0.00 0.89 0.89 94 1015.6
20260510015946 22 90 0.0 0.0 0.00 0.89 0.89 94 1015.2
20260510015443 21 90 0.0 0.0 0.00 0.89 0.89 94 1015.0
20260510014938 22 90 0.0 0.0 0.00 0.89 0.89 94 1015.0
20260510014436 21 90 0.0 0.0 0.00 0.89 0.89 94 1014.9
20260510013932 22 90 0.0 0.0 0.00 0.89 0.89 94 1014.9
20260510013427 21 90 0.0 0.0 0.00 0.89 0.89 94 1015.1
20260510012923 22 90 0.0 1.6 0.00 0.89 0.89 94 1015.2
20260510012418 22 187 0.0 1.6 0.00 0.89 0.89 93 1015.0
20260510011913 22 180 0.0 0.0 0.00 0.89 0.89 93 1014.9
20260510011408 22 90 0.0 0.0 0.00 0.89 0.89 93 1014.7
20260510010904 22 90 0.0 0.0 0.00 0.89 0.89 93 1014.8
20260510010402 22 90 0.0 0.0 0.00 0.89 0.89 93 1014.9
20260510005858 21 90 0.0 0.0 0.00 0.89 0.89 93 1014.8
20260510005354 22 90 0.0 0.0 0.00 0.89 0.89 93 1014.8
20260510004852 22 99 0.0 3.2 0.00 0.89 0.89 93 1014.8
20260510004349 22 172 0.0 0.0 0.00 0.89 0.89 93 1014.8
20260510003847 22 172 0.0 0.0 0.00 0.89 0.89 93 1014.8
20260510003344 22 81 0.0 0.0 0.00 0.89 0.89 93 1015.0
20260510002842 22 81 0.0 0.0 0.00 0.89 0.89 93 1014.8
20260510002340 22 81 0.0 0.0 0.00 0.89 0.89 93 1015.0
20260510001837 22 74 1.6 3.2 0.00 0.89 0.89 93 1014.9
20260510001335 22 172 0.0 0.0 0.00 0.89 0.89 93 1015.1
20260510000830 22 172 0.0 0.0 0.00 0.89 0.89 93 1015.0
20260510000328 22 172 0.0 0.0 0.00 0.89 0.89 93 1015.1
20260509235825 22 172 0.0 0.0 0.05 0.89 0.89 93 1015.1
20260509235321 22 172 0.0 0.0 0.05 0.89 0.89 93 1015.0
20260509234817 22 172 0.0 0.0 0.05 0.86 0.86 93 1015.0
20260509234314 22 172 0.0 0.0 0.05 0.86 0.86 93 1015.1
20260509233812 22 172 0.0 0.0 0.00 0.86 0.86 93 1015.1
20260509233309 22 160 1.6 1.6 0.00 0.86 0.86 93 1015.1
20260509232805 22 82 0.0 0.0 0.00 0.86 0.86 93 1014.9
20260509232306 22 82 0.0 0.0 0.00 0.86 0.86 93 1015.1
20260509231759 22 82 0.0 0.0 0.00 0.86 0.86 93 1015.1
20260509231256 22 82 0.0 0.0 0.00 0.86 0.86 93 1014.9
20260509230754 22 82 0.0 0.0 0.00 0.86 0.86 92 1015.1
20260509230250 22 82 0.0 0.0 0.00 0.86 0.86 92 1014.7
20260509225745 22 82 0.0 1.6 0.00 0.86 0.86 92 1014.9
20260509225242 22 81 0.0 0.0 0.00 0.86 0.86 92 1014.7
20260509224737 22 90 0.0 0.0 0.05 0.86 0.86 92 1014.8
20260509224235 22 99 0.0 0.0 0.05 0.86 0.86 92 1014.8
20260509223732 22 220 0.0 3.2 0.05 0.86 0.86 92 1015.0
20260509223229 22 98 0.0 1.6 0.05 0.86 0.86 92 1015.0
20260509222726 22 84 1.6 4.8 0.00 0.84 0.84 92 1014.9
20260509222221 22 82 1.6 1.6 0.00 0.84 0.84 92 1015.2
20260509221717 22 81 0.0 1.6 0.00 0.84 0.84 92 1014.9
20260509221213 22 106 0.0 3.2 0.00 0.84 0.84 92 1015.0
20260509220709 22 106 1.6 1.6 0.00 0.84 0.84 92 1014.8
20260509220206 22 75 0.0 3.2 0.00 0.84 0.84 92 1014.8
20260509215701 22 81 0.0 1.6 0.00 0.84 0.84 92 1015.1
20260509215158 21 82 1.6 3.2 0.00 0.84 0.84 92 1014.8
20260509214655 21 348 0.0 1.6 0.00 0.84 0.84 92 1014.7
20260509214152 21 78 3.2 8.0 0.00 0.84 0.84 92 1014.5
20260509213649 22 74 1.6 3.2 0.00 0.84 0.84 92 1014.6
20260509213145 22 90 1.6 4.8 0.00 0.84 0.84 92 1014.6
20260509212642 22 131 3.2 3.2 0.00 0.84 0.84 92 1014.7
20260509212139 22 70 3.2 4.8 0.00 0.84 0.84 92 1014.6
20260509211635 22 48 3.2 8.0 0.00 0.84 0.84 92 1014.8
20260509211132 22 16 0.0 4.8 0.13 0.84 0.84 91 1014.5
20260509210629 21 84 1.6 6.4 0.05 0.84 0.84 91 1014.6
20260509210126 21 14 3.2 8.0 0.00 0.81 0.81 91 1014.5
20260509205620 22 84 8.0 9.7 0.00 0.81 0.81 91 1014.7
20260509205115 22 33 3.2 6.4 0.00 0.81 0.81 91 1014.7
20260509204612 22 82 0.0 4.8 0.00 0.81 0.81 91 1014.7
20260509204108 22 314 6.4 9.7 0.18 0.81 0.81 90 1014.6
20260509203604 23 42 8.0 8.0 0.13 0.81 0.81 90 1014.5
20260509203103 23 0 0.0 4.8 0.00 0.79 0.79 90 1014.4
20260509202556 23 11 3.2 4.8 0.00 0.79 0.79 90 1014.5
20260509202053 23 343 6.4 8.0 0.00 0.79 0.79 90 1014.6
20260509201547 23 0 0.0 1.6 0.05 0.79 0.79 90 1014.5
20260509201046 23 32 0.0 3.2 0.18 0.79 0.79 90 1014.3
20260509200545 23 14 0.0 0.0 0.30 0.79 0.79 89 1014.5
20260509200042 24 186 0.0 3.2 0.18 0.76 0.76 89 1014.4
20260509195537 23 15 0.0 1.6 0.00 0.74 0.74 89 1014.5
20260509195032 24 90 0.0 1.6 0.05 0.74 0.74 89 1014.3
20260509194527 24 106 0.0 0.0 0.00 0.71 0.71 88 1014.6
20260509194025 24 99 0.0 1.6 0.00 0.71 0.71 88 1014.7
20260509193525 24 114 0.0 0.0 0.05 0.71 0.71 88 1014.5
20260509193022 24 114 0.0 1.6 0.13 0.71 0.71 87 1014.1
20260509192518 25 127 3.2 3.2 0.18 0.71 0.71 86 1014.1
20260509192013 25 0 0.0 6.4 0.30 0.71 0.71 84 1014.3
20260509191508 25 49 0.0 4.8 0.36 0.66 0.66 83 1014.3
20260509191004 26 81 3.2 3.2 0.18 0.64 0.64 81 1014.3
20260509190501 26 82 0.0 1.6 0.00 0.61 0.61 79 1014.5
20260509185959 26 99 0.0 3.2 0.00 0.61 0.61 78 1014.3
20260509185456 26 90 0.0 3.2 0.00 0.61 0.61 77 1014.2
20260509184952 26 120 3.2 3.2 0.00 0.61 0.61 77 1014.3
20260509184451 26 74 3.2 3.2 0.00 0.61 0.61 76 1014.4
20260509183946 26 145 0.0 3.2 0.00 0.61 0.61 76 1014.3
20260509183441 26 140 3.2 3.2 0.00 0.61 0.61 75 1014.3
20260509182938 26 98 1.6 4.8 0.00 0.61 0.61 75 1014.6
20260509182434 27 35 1.6 4.8 0.00 0.61 0.61 74 1014.4
20260509181931 27 60 3.2 4.8 0.00 0.61 0.61 74 1014.4
20260509181430 27 115 3.2 6.4 0.00 0.61 0.61 73 1014.6
20260509180926 28 331 0.0 4.8 0.00 0.61 0.61 72 1014.4
20260509180422 28 45 4.8 6.4 0.00 0.61 0.61 73 1014.5
20260509175919 27 83 1.6 6.4 0.00 0.61 0.61 74 1014.4
20260509175415 27 102 4.8 9.7 0.00 0.61 0.61 75 1014.7
20260509174912 27 165 0.0 8.0 0.00 0.61 0.61 75 1014.8
20260509174408 27 82 3.2 6.4 0.00 0.61 0.61 75 1015.1
20260509173904 27 143 3.2 6.4 0.00 0.61 0.61 76 1014.8
20260509173403 26 126 0.0 4.8 0.00 0.61 0.61 77 1015.2
20260509172900 26 99 3.2 11.3 0.00 0.61 0.61 77 1015.2
20260509172357 26 132 6.4 8.0 0.00 0.61 0.61 76 1015.0
20260509171853 26 14 0.0 3.2 0.00 0.61 0.61 77 1015.1